[[{"header":{"parameterUnit":"m.s-1","parameterCategory":1,"la1":30.2991,"la2":30.254,"lo1":-89.0895,"lo2":-89.0444,"dy":0.0017,"dx":0.0017,"nx":28,"ny":28,"refTime":"2023-08-28T21:00:00:Z","depth":0,"parameterNumber":2,"parameterNumberName":"U-component_of_WINDS"},"data":[0,0,0,0,0,0,0,0,0,0,0,0,0,0,0,0,0,0,0,0,0,0,0,0,0,0,0,0,0,0,0,0,0,0,0,0,0,0,0,0,0,0,0,0,0,0,0,0,0,0,0,0,0,0,0,0,0,0,-3.1227,-3.1226,0,-3.1097,-3.1095,-3.1094,-3.0944,-3.0942,-3.094,-3.0938,-3.0804,-3.0803,-3.0801,0,0,0,0,0,0,0,0,0,0,0,0,0,-3.1346,-3.1345,-3.1227,-3.1225,-3.1224,-3.1097,-3.1095,-3.1093,-3.0945,-3.0942,-3.0939,-3.0937,-3.0805,-3.0803,-3.0801,0,0,0,0,0,0,0,0,0,0,0,0,0,-3.1263,-3.1345,-3.1227,-3.1134,-3.1125,-3.1097,-3.1095,-3.1093,-3.0945,-3.0942,-3.0938,-3.0935,-3.0805,-3.0803,-3.0801,-3.0855,0,0,-3.0794,-3.0793,0,0,0,0,0,0,0,0,-3.1268,-3.1259,-3.115,-3.1141,-3.113,-3.1033,-3.1088,-3.1013,-3.0946,-3.1013,-3.0938,-3.0934,-3.0883,-3.0874,-3.0857,-3.0849,-3.0843,-3.0794,-3.0793,-3.0792,-3.0791,0,0,0,0,0,0,0,-3.1274,-3.1264,-3.1175,-3.1148,-3.1136,-3.1099,-3.1083,-3.1073,-3.0969,-3.1007,-3.0996,-3.0983,-3.0877,-3.086,-3.0853,-3.0841,-3.0794,-3.0792,-3.0791,-3.079,-3.0869,-3.0872,0,0,0,0,0,0,-3.1294,-3.127,-3.118,-3.1172,-3.1192,-3.1099,-3.1082,-3.1068,-3.0968,-3.095,-3.0986,-3.0976,-3.0865,-3.0856,-3.0848,-3.0904,-3.0792,-3.079,-3.0789,-3.0866,-3.087,-3.0873,0,0,0,0,0,0,-3.1297,-3.1287,-3.1185,-3.1217,-3.1202,-3.1101,-3.1086,-3.1067,-3.1049,-3.0952,-3.0933,-3.0987,-3.0862,-3.0851,-3.0854,-3.0897,-3.0789,-3.0787,-3.0862,-3.0867,-3.0872,-3.1017,0,0,0,0,0,0,-3.1301,-3.1289,-3.1309,-3.1219,-3.12,-3.1194,-3.1089,-3.1067,-3.1046,-3.1032,-3.0948,-3.0931,-3.0859,-3.0858,-3.0852,-3.0892,-3.0785,-3.0857,-3.0864,-3.087,-3.1007,-3.1026,-3.1042,0,0,0,0,0,-3.1306,-3.1355,-3.1311,-3.1301,-3.1223,-3.1197,-3.1186,-3.1101,-3.105,-3.1069,-3.1006,-3.0934,-3.0894,-3.086,-3.0851,-3.0892,-3.0854,-3.0862,-3.0869,-3.1,-3.1022,-3.1041,0,0,0,0,0,0,-3.1453,-3.1342,-3.1291,-3.1313,-3.1265,-3.1171,-3.1192,-3.1128,-3.1094,-3.1083,-3.0979,-3.0961,-3.0977,-3.0934,-3.0899,-3.0938,-3.0863,-3.087,-3.0965,-3.0986,-3.1003,-3.1013,-3.0783,0,0,0,0,0,-3.1488,-3.1476,-3.1379,-3.1408,-3.1386,-3.1294,-3.1279,-3.1218,-3.1165,-3.1144,-3.1081,-3.1033,-3.1008,-3.0995,-3.0967,-3.1001,-3.098,-3.1024,-3.1041,-3.1056,-3.1063,-3.1076,-3.1095,-3.0899,-3.0898,-3.0898,0,0,-3.1559,-3.1497,-3.1496,-3.1435,-3.1391,-3.1381,-3.1278,-3.1272,-3.1263,-3.1143,-3.1142,-3.1095,-3.1033,-3.1052,-3.1056,-3.1016,-3.1112,-3.1066,-3.1078,-3.1076,-3.1086,-3.1105,-3.1122,-3.0904,-3.0903,-3.0902,0,0,-3.1685,-3.1637,-3.1655,-3.1613,-3.1548,-3.1486,-3.1491,-3.1406,-3.137,-3.1368,-3.1277,-3.1266,-3.1227,-3.1186,-3.1161,-3.1271,-3.1203,-3.1265,-3.1355,-3.137,-3.1385,-3.1398,-3.1437,-3.1453,-3.1272,-3.1273,-3.1273,0,-3.1782,-3.1763,-3.1673,-3.1672,-3.1647,-3.1538,-3.1556,-3.1519,-3.1449,-3.1435,-3.1391,-3.1339,-3.129,-3.1297,-3.1324,-3.1308,-3.1309,-3.1274,-3.139,-3.1403,-3.1413,-3.1449,-3.1465,-3.128,-3.128,-3.1279,-3.1278,0,-3.1886,-3.1875,-3.1897,-3.1832,-3.181,-3.1819,-3.1729,-3.1718,-3.1659,-3.1602,-3.16,-3.1537,-3.1495,-3.1492,-3.1435,-3.1491,-3.1469,-3.1409,-3.1332,-3.1442,-3.1474,-3.1487,-3.1292,-3.1289,-3.1287,-3.1285,0,0,-3.21,-3.1985,-3.1994,-3.1963,-3.1883,-3.1872,-3.1876,-3.1834,-3.1827,-3.1782,-3.1782,-3.1751,-3.1695,-3.1667,-3.1603,-3.1617,-3.1708,-3.1555,-3.1552,-3.1585,-3.1766,-3.1811,-3.1828,-3.1663,-3.1665,-3.1667,-3.1771,0,-3.2211,-3.221,-3.2129,-3.2151,-3.2139,-3.2035,-3.2038,-3.1989,-3.1936,-3.1918,-3.1859,-3.1839,-3.1767,-3.1749,-3.1757,-3.1695,-3.1743,-3.1686,-3.1661,-3.1661,-3.168,-3.1845,-3.1892,-3.1994,-3.1783,-3.1785,-3.1786,0,-3.234,-3.2303,-3.2324,-3.2243,-3.2235,-3.2239,-3.2194,-3.2178,-3.2121,-3.2081,-3.2049,-3.1977,-3.1975,-3.1902,-3.1897,-3.1861,-3.1845,-3.1813,-3.1815,-3.1809,-3.1731,-3.1843,-3.2024,-3.204,-3.1805,-3.1804,-3.1802,0,-3.2494,-3.2449,-3.2455,-3.2432,-3.2338,-3.2343,-3.2304,-3.2243,-3.2223,-3.2184,-3.217,-3.2132,-3.2111,-3.2083,-3.2002,-3.1957,-3.2006,-3.1927,-3.1973,-3.1975,-3.1987,-3.1988,-3.2169,-3.1979,-3.1979,-3.1979,-3.1978,0,-3.2626,-3.2643,-3.2523,-3.2527,-3.2543,-3.2449,-3.2467,-3.2417,-3.2364,-3.2357,-3.2265,-3.226,-3.2154,-3.2137,-3.2074,-3.2079,-3.207,-3.2038,-3.2021,-3.2046,-3.205,-3.2034,-3.2025,-3.1982,-3.1982,-3.1981,-3.198,0,-3.28,-3.2721,-3.2721,-3.2632,-3.2609,-3.2625,-3.2548,-3.2548,-3.2489,-3.2481,-3.2474,-3.2382,-3.2357,-3.2274,-3.2228,-3.2186,-3.221,-3.2178,-3.223,-3.2219,-3.2269,-3.2266,-3.2446,-3.2464,-3.2264,-3.2266,-3.2268,0,-3.2889,-3.29,-3.2812,-3.28,-3.2765,-3.2748,-3.2727,-3.2635,-3.2617,-3.2553,-3.2561,-3.2528,-3.2497,-3.2463,-3.2391,-3.2356,-3.2322,-3.2388,-3.2316,-3.2341,-3.2322,-3.2323,-3.2323,-3.2403,-3.2406,-3.2408,-3.241,0,-3.3056,-3.3017,-3.299,-3.2951,-3.2929,-3.2893,-3.2852,-3.2848,-3.2745,-3.273,-3.2703,-3.2679,-3.2633,-3.2602,-3.2555,-3.2514,-3.2445,-3.2433,-3.2441,-3.2467,-3.2496,-3.2481,-3.2272,-3.2429,-3.2427,-3.2426,-3.2425,-3.2424,-3.319,-3.3195,-3.3133,-3.3107,-3.3067,-3.3031,-3.3026,-3.2967,-3.2943,-3.2898,-3.2845,-3.2825,-3.2766,-3.2696,-3.2661,-3.2643,-3.2606,-3.2619,-3.2622,-3.2626,-3.2638,-3.25,-3.2635,-3.2634,-3.2633,-3.2633,-3.2632,0,-3.3352,-3.3308,-3.3285,-3.323,-3.321,-3.3147,-3.3098,-3.3085,-3.3068,-3.302,-3.2991,-3.2961,-3.293,-3.2857,-3.2819,-3.282,-3.2787,-3.2813,-3.2812,-3.2803,-3.2674,-3.267,-3.284,-3.284,-3.284,-3.284,-3.284,-3.284,-3.3434,-3.3438,-3.3391,-3.3374,-3.3329,-3.3308,-3.3286,-3.3252,-3.3213,-3.3183,-3.3157,-3.3109,-3.305,-3.3008,-3.2977,-3.2956,-3.2946,-3.2983,-3.2952,-3.2832,-3.2813,-3.2794,-3.2789,-3.2982,-3.2982,-3.3082,-3.3083,-3.3084]},{"header":{"parameterUnit":"m.s-1","parameterCategory":1,"la1":30.2991,"la2":30.254,"lo1":-89.0895,"lo2":-89.0444,"dy":0.0017,"dx":0.0017,"nx":28,"ny":28,"refTime":"2023-08-28T21:00:00:Z","depth":0,"parameterNumber":3,"parameterNumberName":"V-component_of_WINDS"},"data":[0,0,0,0,0,0,0,0,0,0,0,0,0,0,0,0,0,0,0,0,0,0,0,0,0,0,0,0,0,0,0,0,0,0,0,0,0,0,0,0,0,0,0,0,0,0,0,0,0,0,0,0,0,0,0,0,0,0,1.8858,1.8859,0,1.8923,1.8923,1.8924,1.8975,1.8976,1.8976,1.8977,1.9037,1.9038,1.9039,0,0,0,0,0,0,0,0,0,0,0,0,0,1.8774,1.8776,1.8858,1.8859,1.886,1.8922,1.8923,1.8924,1.8975,1.8976,1.8976,1.8977,1.9036,1.9038,1.9039,0,0,0,0,0,0,0,0,0,0,0,0,0,1.8822,1.8776,1.8858,1.8893,1.8897,1.8922,1.8923,1.8924,1.8975,1.8976,1.8976,1.8977,1.9036,1.9037,1.9039,1.9033,0,0,1.9044,1.9045,0,0,0,0,0,0,0,0,1.8819,1.8825,1.8887,1.8891,1.8895,1.8942,1.8916,1.8961,1.8975,1.8945,1.8977,1.8978,1.9004,1.9008,1.9018,1.9036,1.9039,1.9044,1.9045,1.9046,1.9046,0,0,0,0,0,0,0,1.8816,1.8822,1.8884,1.8888,1.8893,1.8904,1.8911,1.8925,1.8969,1.8948,1.8952,1.8959,1.9006,1.9017,1.902,1.904,1.9044,1.9046,1.9047,1.9047,1.9056,1.9055,0,0,0,0,0,0,1.8808,1.8819,1.8882,1.8886,1.8858,1.8904,1.8913,1.8926,1.8969,1.8977,1.8958,1.8961,1.9014,1.9018,1.9023,1.9019,1.9046,1.9048,1.9048,1.9056,1.9056,1.9055,0,0,0,0,0,0,1.8806,1.8813,1.8879,1.8853,1.8863,1.8905,1.8919,1.8927,1.8937,1.8977,1.8985,1.8961,1.9014,1.902,1.9031,1.9021,1.9048,1.905,1.9057,1.9056,1.9055,1.9011,0,0,0,0,0,0,1.8803,1.8812,1.8811,1.8853,1.8864,1.8888,1.8919,1.8927,1.8941,1.8945,1.8982,1.8989,1.9015,1.9028,1.9032,1.9024,1.9051,1.9058,1.9057,1.9055,1.9013,1.9008,1.9004,0,0,0,0,0,1.88,1.8795,1.8811,1.8818,1.8865,1.8887,1.8893,1.8926,1.894,1.8939,1.8964,1.8987,1.9022,1.9029,1.9034,1.9026,1.9059,1.9057,1.9056,1.9015,1.9009,1.9004,0,0,0,0,0,0,1.8749,1.8801,1.8819,1.8829,1.8853,1.8896,1.8895,1.8918,1.8938,1.8941,1.8979,1.8986,1.8993,1.9011,1.9017,1.9023,1.9043,1.9043,1.9011,1.9006,1.9001,1.8996,1.9052,0,0,0,0,0,1.8739,1.8755,1.8799,1.8802,1.8814,1.8853,1.8863,1.8887,1.8913,1.8923,1.8949,1.8972,1.8988,1.8998,1.9015,1.9016,1.9024,1.9014,1.9009,1.9005,1.9004,1.9005,1.9001,1.9049,1.9049,1.9049,0,0,1.8718,1.8749,1.8756,1.8793,1.8815,1.8828,1.8861,1.8874,1.8884,1.8924,1.8937,1.8956,1.8984,1.899,1.8994,1.9005,1.8992,1.9003,1.8999,1.9,1.9003,1.8998,1.8994,1.9048,1.9048,1.9048,0,0,1.8687,1.8712,1.8718,1.874,1.8773,1.8799,1.88,1.884,1.8855,1.8868,1.8899,1.891,1.8937,1.8956,1.8969,1.8946,1.8967,1.895,1.8925,1.8926,1.8923,1.8919,1.891,1.8907,1.8949,1.8948,1.8948,0,1.8656,1.868,1.8718,1.873,1.8744,1.8784,1.8789,1.8807,1.8843,1.8852,1.8865,1.89,1.8921,1.8932,1.8926,1.8936,1.8937,1.8946,1.8921,1.8918,1.8915,1.8907,1.8903,1.8946,1.8946,1.8947,1.8947,0,1.8641,1.8656,1.8657,1.8693,1.8708,1.8716,1.8753,1.8763,1.8785,1.8809,1.8821,1.8849,1.8872,1.8876,1.8897,1.889,1.8896,1.8914,1.8935,1.8908,1.89,1.8898,1.8943,1.8944,1.8944,1.8945,0,0,1.8579,1.8637,1.8636,1.8653,1.8693,1.8705,1.8714,1.8739,1.8746,1.877,1.8778,1.88,1.8818,1.8832,1.8855,1.8856,1.8835,1.8875,1.8876,1.8866,1.8828,1.8814,1.881,1.885,1.885,1.8849,1.8826,0,1.8553,1.8575,1.8609,1.8618,1.8633,1.8671,1.8679,1.8703,1.8725,1.8739,1.8763,1.8779,1.8801,1.881,1.8813,1.8837,1.8828,1.884,1.8856,1.8856,1.8848,1.8806,1.8791,1.8767,1.8823,1.8823,1.8822,0,1.8527,1.8551,1.8562,1.8601,1.8608,1.8615,1.8641,1.8654,1.8682,1.8698,1.8715,1.8741,1.8751,1.8771,1.8785,1.8792,1.8801,1.8814,1.8814,1.8816,1.8837,1.8806,1.876,1.8756,1.8818,1.8819,1.8819,0,1.848,1.8514,1.8526,1.8539,1.8585,1.8589,1.8608,1.8637,1.8649,1.8671,1.8679,1.8701,1.8712,1.8728,1.8758,1.877,1.8768,1.8791,1.878,1.878,1.8778,1.8777,1.8732,1.8784,1.8784,1.8784,1.8785,0,1.8448,1.8453,1.8505,1.8512,1.8519,1.8557,1.8562,1.8584,1.861,1.862,1.8653,1.8662,1.8702,1.8715,1.8738,1.8746,1.8751,1.8763,1.8769,1.876,1.8758,1.8766,1.8768,1.8784,1.8784,1.8784,1.8784,0,1.8396,1.8432,1.8446,1.8489,1.85,1.8503,1.8539,1.8546,1.8571,1.8584,1.8589,1.8627,1.8644,1.8676,1.8701,1.8717,1.8719,1.873,1.871,1.8714,1.8702,1.8702,1.8659,1.8655,1.871,1.871,1.8709,0,1.8373,1.8379,1.8423,1.8433,1.8451,1.8468,1.8481,1.8519,1.8531,1.8564,1.8566,1.8587,1.8605,1.863,1.8658,1.8678,1.8689,1.8673,1.8692,1.8683,1.8688,1.8687,1.8688,1.8668,1.8667,1.8666,1.8666,0,1.8328,1.8346,1.8365,1.8391,1.8407,1.8428,1.8451,1.8457,1.8499,1.8511,1.8531,1.8545,1.8571,1.859,1.8614,1.8632,1.8655,1.866,1.8658,1.8649,1.8637,1.8642,1.8698,1.866,1.8661,1.8661,1.8662,1.8662,1.829,1.8297,1.8329,1.8349,1.8371,1.8392,1.8401,1.8427,1.8444,1.8471,1.8491,1.8508,1.8535,1.857,1.8586,1.8599,1.861,1.8608,1.8608,1.8606,1.8602,1.8635,1.8603,1.8604,1.8604,1.8604,1.8604,0,1.8247,1.827,1.8288,1.832,1.8336,1.8359,1.8386,1.8396,1.8412,1.8436,1.8454,1.8475,1.8494,1.8524,1.8545,1.8549,1.8561,1.8553,1.8553,1.8557,1.8591,1.859,1.8544,1.8544,1.8544,1.8544,1.8544,1.8544,1.8226,1.8238,1.8259,1.8282,1.8304,1.8323,1.8336,1.8355,1.8375,1.8397,1.8414,1.8435,1.8461,1.8484,1.8502,1.851,1.8516,1.8505,1.8517,1.8549,1.8554,1.8559,1.8559,1.8506,1.8506,1.8481,1.8481,1.8481]}]]